EJU59FK LIML-EDDB

Flight info

Callsign EJU59FK
Flight time 1h 17m
Altitude 37000
Route PEPAG N851 UTAVO DCT ROLSA DCT LOKTA DCT TIKNI T279 TAMEB T278 KLF
Aircraft A320/M-SDE2E3FGHIJ1RWXYZ/LB1

Departure

Time 2026-05-06 18:23
Airport Milano Linate Airport (LIML)

Arrival

Time 2026-05-06 19:41
Airport Berlin Brandenburg Airport (EDDB)
Time Latitude Longitude Altitude Speed Heading
2026-05-06 17:56 45.45818 9.27894 360 ft 0 kts 90°
2026-05-06 18:16 45.45818 9.27934 360 ft 8 kts 90°
2026-05-06 18:16 45.45776 9.27981 360 ft 8 kts 177°
2026-05-06 18:17 45.45722 9.27981 363 ft 7 kts 180°
2026-05-06 18:17 45.45667 9.27981 360 ft 9 kts 180°
2026-05-06 18:17 45.45596 9.27980 360 ft 11 kts 180°
2026-05-06 18:17 45.45523 9.27979 360 ft 10 kts 182°
2026-05-06 18:18 45.45444 9.27977 360 ft 14 kts 180°
2026-05-06 18:18 45.45351 9.27952 366 ft 12 kts 206°
2026-05-06 18:18 45.45282 9.27902 360 ft 10 kts 205°
2026-05-06 18:18 45.45217 9.27872 360 ft 11 kts 192°
2026-05-06 18:19 45.45117 9.27876 364 ft 15 kts 176°
2026-05-06 18:19 45.45020 9.27887 362 ft 13 kts 175°
2026-05-06 18:19 45.44914 9.27914 363 ft 17 kts 164°
2026-05-06 18:19 45.44806 9.27943 364 ft 15 kts 174°
2026-05-06 18:20 45.44734 9.27950 360 ft 18 kts 176°
2026-05-06 18:20 45.44587 9.27967 360 ft 24 kts 176°
2026-05-06 18:20 45.44421 9.27985 360 ft 25 kts 176°
2026-05-06 18:20 45.44244 9.28004 362 ft 26 kts 175°
2026-05-06 18:21 45.44061 9.28023 360 ft 27 kts 175°
2026-05-06 18:21 45.43869 9.28044 362 ft 28 kts 175°
2026-05-06 18:21 45.43671 9.28065 360 ft 28 kts 175°
2026-05-06 18:21 45.43502 9.28082 364 ft 18 kts 179°
2026-05-06 18:22 45.43444 9.27976 361 ft 11 kts 266°
2026-05-06 18:22 45.43441 9.27886 365 ft 6 kts 272°
2026-05-06 18:22 45.43473 9.27827 362 ft 11 kts 328°
2026-05-06 18:22 45.43554 9.27810 361 ft 15 kts 357°
2026-05-06 18:23 45.43858 9.27778 361 ft 82 kts 356°
2026-05-06 18:23 45.44650 9.27689 368 ft 144 kts 355°
2026-05-06 18:23 45.45695 9.27573 890 ft 152 kts 357°
2026-05-06 18:23 45.46775 9.27477 1531 ft 160 kts
2026-05-06 18:24 45.47975 9.27360 1824 ft 183 kts 357°
2026-05-06 18:24 45.49288 9.27196 2272 ft 197 kts 355°
2026-05-06 18:24 45.50733 9.27018 2556 ft 220 kts 355°
2026-05-06 18:24 45.52328 9.26829 2864 ft 241 kts 355°
2026-05-06 18:25 45.54063 9.26625 3289 ft 262 kts 354°
2026-05-06 18:25 45.55930 9.26408 3917 ft 274 kts 354°
2026-05-06 18:25 45.57852 9.26188 4723 ft 281 kts 354°
2026-05-06 18:25 45.59823 9.25962 5534 ft 286 kts 354°
2026-05-06 18:26 45.61795 9.25666 6468 ft 286 kts 346°
2026-05-06 18:26 45.63713 9.24890 7285 ft 288 kts 341°
2026-05-06 18:26 45.65640 9.24056 8110 ft 291 kts 341°
2026-05-06 18:26 45.67588 9.23209 8927 ft 295 kts 341°
2026-05-06 18:27 45.69616 9.22617 9730 ft 301 kts 351°
2026-05-06 18:27 45.71702 9.22252 10471 ft 304 kts 351°
2026-05-06 18:27 45.73816 9.21877 11214 ft 307 kts 350°
2026-05-06 18:27 45.75950 9.21493 11936 ft 311 kts 350°
2026-05-06 18:28 45.78110 9.21102 12673 ft 314 kts 350°
2026-05-06 18:28 45.80290 9.20707 13403 ft 318 kts 350°
2026-05-06 18:28 45.82497 9.20311 14052 ft 322 kts 349°
2026-05-06 18:28 45.84684 9.19596 14672 ft 323 kts 337°
2026-05-06 18:29 45.86754 9.18230 14952 ft 336 kts 324°
2026-05-06 18:29 45.88761 9.16330 15120 ft 355 kts 322°
2026-05-06 18:29 45.90838 9.14334 15612 ft 363 kts 322°
2026-05-06 18:29 45.92954 9.12309 16173 ft 367 kts 323°
2026-05-06 18:30 45.95097 9.10270 16756 ft 371 kts 323°
2026-05-06 18:30 45.97340 9.08375 17386 ft 378 kts 332°
2026-05-06 18:30 45.99837 9.07074 17969 ft 386 kts 343°
2026-05-06 18:30 46.02511 9.06452 18486 ft 393 kts 351°
2026-05-06 18:31 46.05245 9.06024 19016 ft 397 kts 351°
2026-05-06 18:31 46.07999 9.05584 19539 ft 401 kts 351°
2026-05-06 18:31 46.10786 9.05134 20054 ft 405 kts 351°
2026-05-06 18:31 46.13594 9.04677 20584 ft 408 kts 351°
2026-05-06 18:32 46.16429 9.04213 21029 ft 411 kts 351°
2026-05-06 18:32 46.19286 9.03778 21476 ft 416 kts 351°
2026-05-06 18:32 46.22175 9.03381 21985 ft 419 kts 352°
2026-05-06 18:32 46.25099 9.03003 22453 ft 424 kts 352°
2026-05-06 18:33 46.28053 9.02630 22968 ft 428 kts 352°
2026-05-06 18:33 46.30992 9.02258 23468 ft 431 kts 352°
2026-05-06 18:33 46.33997 9.01869 23865 ft 435 kts 352°
2026-05-06 18:33 46.37062 9.01464 24265 ft 438 kts 351°
2026-05-06 18:34 46.40069 9.01063 24614 ft 442 kts 351°
2026-05-06 18:34 46.43141 9.00647 24995 ft 445 kts 351°
2026-05-06 18:34 46.46231 9.00221 25372 ft 448 kts 351°
2026-05-06 18:34 46.49347 8.99792 25685 ft 451 kts 351°
2026-05-06 18:35 46.52482 8.99364 26054 ft 454 kts 350°
2026-05-06 18:35 46.55643 8.98936 26437 ft 458 kts 350°
2026-05-06 18:35 46.58823 8.98507 26772 ft 460 kts 350°
2026-05-06 18:35 46.62018 8.98079 27103 ft 463 kts 350°
2026-05-06 18:36 46.65241 8.97650 27404 ft 467 kts 350°
2026-05-06 18:36 46.68492 8.97214 27692 ft 469 kts 349°
2026-05-06 18:36 46.71752 8.96771 28028 ft 472 kts 349°
2026-05-06 18:36 46.75029 8.96321 28364 ft 475 kts 350°
2026-05-06 18:37 46.78338 8.95866 28650 ft 479 kts 350°
2026-05-06 18:37 46.81665 8.95409 28993 ft 482 kts 349°
2026-05-06 18:37 46.85016 8.94948 29252 ft 484 kts 349°
2026-05-06 18:37 46.88378 8.94492 29514 ft 486 kts 349°
2026-05-06 18:38 46.91754 8.94035 29794 ft 489 kts 349°
2026-05-06 18:38 46.95149 8.93575 30049 ft 492 kts 349°
2026-05-06 18:38 46.98560 8.93109 30296 ft 494 kts 349°
2026-05-06 18:38 47.01982 8.92638 30578 ft 495 kts 349°
2026-05-06 18:39 47.05422 8.92164 30854 ft 496 kts 349°
2026-05-06 18:39 47.08857 8.91693 31140 ft 496 kts 350°
2026-05-06 18:39 47.12291 8.91223 31480 ft 494 kts 350°
2026-05-06 18:40 47.19105 8.90281 32221 ft 490 kts 349°
2026-05-06 18:40 47.22495 8.89812 32587 ft 488 kts 349°
2026-05-06 18:40 47.25867 8.89360 32960 ft 487 kts 352°
2026-05-06 18:40 47.29259 8.89376 33367 ft 489 kts
2026-05-06 18:41 47.32623 8.90102 33739 ft 490 kts
2026-05-06 18:41 47.35948 8.91210 34073 ft 488 kts 10°
2026-05-06 18:41 47.39256 8.92310 34353 ft 487 kts
2026-05-06 18:41 47.42565 8.93406 34611 ft 486 kts
2026-05-06 18:42 47.45860 8.94492 34871 ft 485 kts 10°
2026-05-06 18:42 47.49145 8.95575 35145 ft 483 kts 10°
2026-05-06 18:42 47.52425 8.96660 35402 ft 482 kts 10°
2026-05-06 18:42 47.55691 8.97747 35645 ft 481 kts 10°
2026-05-06 18:43 47.58956 8.98835 35867 ft 480 kts 10°
2026-05-06 18:43 47.62207 8.99919 36096 ft 479 kts 10°
2026-05-06 18:43 47.65456 9.01003 36319 ft 478 kts 10°
2026-05-06 18:43 47.68700 9.02086 36537 ft 477 kts 11°
2026-05-06 18:44 47.71934 9.03168 36744 ft 476 kts 11°
2026-05-06 18:44 47.75161 9.04247 36887 ft 476 kts 11°
2026-05-06 18:44 47.78385 9.05327 36908 ft 474 kts 11°
2026-05-06 18:45 47.84808 9.07483 36913 ft 473 kts 11°
2026-05-06 18:45 47.91220 9.09636 36908 ft 472 kts 11°
2026-05-06 18:46 47.97631 9.11802 36903 ft 472 kts 11°
2026-05-06 18:46 48.04041 9.13974 36899 ft 472 kts 11°
2026-05-06 18:47 48.10412 9.16137 36912 ft 473 kts 11°
2026-05-06 18:47 48.16816 9.18326 36908 ft 472 kts 11°
2026-05-06 18:48 48.23248 9.20342 36902 ft 472 kts
2026-05-06 18:48 48.29697 9.22162 36906 ft 472 kts
2026-05-06 18:49 48.36143 9.23999 36902 ft 472 kts
2026-05-06 18:49 48.42588 9.25905 36888 ft 472 kts 10°
2026-05-06 18:50 48.49025 9.27845 36860 ft 473 kts 10°
2026-05-06 18:50 48.52281 9.28832 36193 ft 479 kts 10°
2026-05-06 18:50 48.55527 9.29812 35865 ft 474 kts 10°
2026-05-06 18:51 48.62007 9.31753 35844 ft 473 kts
2026-05-06 18:51 48.65232 9.32705 36095 ft 472 kts
2026-05-06 18:51 48.68449 9.33655 36346 ft 470 kts
2026-05-06 18:51 48.71654 9.34611 36602 ft 469 kts 10°
2026-05-06 18:52 48.74852 9.35569 36807 ft 469 kts 10°
2026-05-06 18:52 48.81270 9.37505 36863 ft 471 kts 10°
2026-05-06 18:53 48.87699 9.39451 36861 ft 471 kts 10°
2026-05-06 18:53 48.94129 9.41415 36850 ft 471 kts 10°
2026-05-06 18:54 49.00559 9.43366 36845 ft 471 kts 10°
2026-05-06 18:54 49.06993 9.45317 36842 ft 471 kts 10°
2026-05-06 18:55 49.13426 9.47272 36845 ft 472 kts 10°
2026-05-06 18:55 49.19862 9.49238 36851 ft 472 kts 10°
2026-05-06 18:56 49.26304 9.51218 36847 ft 472 kts 10°
2026-05-06 18:56 49.32742 9.53206 36838 ft 472 kts 10°
2026-05-06 18:57 49.39177 9.55191 36843 ft 472 kts 10°
2026-05-06 18:57 49.45616 9.57174 36838 ft 472 kts 10°
2026-05-06 18:58 49.52049 9.59177 36835 ft 472 kts 10°
2026-05-06 18:58 49.58477 9.61193 36840 ft 471 kts 10°
2026-05-06 18:59 49.64904 9.63199 36839 ft 471 kts 10°
2026-05-06 18:59 49.71279 9.65184 36836 ft 471 kts 10°
2026-05-06 19:00 49.77695 9.67182 36828 ft 470 kts 10°
2026-05-06 19:00 49.84111 9.69192 36830 ft 470 kts 10°
2026-05-06 19:01 49.90517 9.71213 36831 ft 470 kts 10°
2026-05-06 19:01 49.96916 9.73246 36825 ft 469 kts 10°
2026-05-06 19:02 50.03316 9.75280 36828 ft 469 kts 10°
2026-05-06 19:02 50.09722 9.77310 36820 ft 470 kts 10°
2026-05-06 19:03 50.16125 9.79352 36816 ft 470 kts 10°
2026-05-06 19:03 50.22530 9.81396 36814 ft 470 kts 10°
2026-05-06 19:04 50.28938 9.83459 36812 ft 471 kts 10°
2026-05-06 19:04 50.35351 9.85550 36811 ft 471 kts 13°
2026-05-06 19:05 50.41380 9.89528 36800 ft 472 kts 33°
2026-05-06 19:05 50.46327 9.96195 36795 ft 470 kts 48°
2026-05-06 19:06 50.50054 10.02406 36799 ft 470 kts 48°
2026-05-06 19:06 50.54545 10.09881 36784 ft 471 kts 47°
2026-05-06 19:07 50.58788 10.17700 36496 ft 468 kts 56°
2026-05-06 19:07 50.60688 10.21865 35964 ft 467 kts 56°
2026-05-06 19:07 50.62569 10.26049 35762 ft 468 kts 57°
2026-05-06 19:08 50.66316 10.34470 35804 ft 472 kts 57°
2026-05-06 19:08 50.70093 10.42951 35799 ft 473 kts 57°
2026-05-06 19:09 50.73876 10.51423 35796 ft 473 kts 57°
2026-05-06 19:09 50.77655 10.59920 35795 ft 473 kts 57°
2026-05-06 19:10 50.81423 10.68437 35792 ft 473 kts 57°
2026-05-06 19:10 50.85194 10.76969 35796 ft 473 kts 57°
2026-05-06 19:11 50.88954 10.85514 35773 ft 473 kts 57°
2026-05-06 19:11 50.92707 10.94079 35763 ft 474 kts 57°
2026-05-06 19:12 50.96434 11.02630 35763 ft 475 kts 57°
2026-05-06 19:12 51.00212 11.11308 35769 ft 475 kts 57°
2026-05-06 19:13 51.03945 11.19895 35784 ft 476 kts 56°
2026-05-06 19:13 51.07691 11.28557 35791 ft 476 kts 57°
2026-05-06 19:14 51.11430 11.37234 35790 ft 476 kts 57°
2026-05-06 19:14 51.15167 11.45927 35767 ft 476 kts 57°
2026-05-06 19:14 51.17029 11.50270 35356 ft 476 kts 57°
2026-05-06 19:15 51.18891 11.54622 34826 ft 473 kts 57°
2026-05-06 19:15 51.20739 11.58948 34328 ft 471 kts 57°
2026-05-06 19:15 51.22570 11.63241 33854 ft 468 kts 57°
2026-05-06 19:15 51.24396 11.67527 33368 ft 464 kts 57°
2026-05-06 19:16 51.26199 11.71762 32912 ft 459 kts 57°
2026-05-06 19:16 51.27985 11.75965 32473 ft 454 kts 57°
2026-05-06 19:16 51.29744 11.80107 32062 ft 449 kts 57°
2026-05-06 19:16 51.31486 11.84219 31633 ft 444 kts 57°
2026-05-06 19:17 51.33203 11.88283 31226 ft 439 kts 57°
2026-05-06 19:17 51.34897 11.92310 30818 ft 434 kts 57°
2026-05-06 19:17 51.36575 11.96296 30414 ft 430 kts 57°
2026-05-06 19:17 51.38236 12.00244 30032 ft 425 kts 57°
2026-05-06 19:18 51.39876 12.04154 29607 ft 421 kts 57°
2026-05-06 19:18 51.41498 12.08031 29060 ft 419 kts 57°
2026-05-06 19:18 51.43372 12.11597 28592 ft 417 kts 41°
2026-05-06 19:18 51.45637 12.14451 28122 ft 414 kts 37°
2026-05-06 19:19 51.47930 12.17229 27686 ft 411 kts 37°
2026-05-06 19:19 51.50202 12.19966 27256 ft 408 kts 37°
2026-05-06 19:19 51.52463 12.22685 26822 ft 404 kts 37°
2026-05-06 19:19 51.54704 12.25383 26394 ft 401 kts 37°
2026-05-06 19:20 51.56924 12.28062 25971 ft 398 kts 37°
2026-05-06 19:20 51.59134 12.30740 25548 ft 395 kts 37°
2026-05-06 19:20 51.61313 12.33387 25135 ft 392 kts 37°
2026-05-06 19:20 51.63485 12.36029 24735 ft 389 kts 37°
2026-05-06 19:21 51.65634 12.38646 24309 ft 386 kts 37°
2026-05-06 19:21 51.67774 12.41256 23895 ft 384 kts 37°
2026-05-06 19:21 51.69867 12.43813 23494 ft 381 kts 38°
2026-05-06 19:21 51.72001 12.46422 23047 ft 379 kts 37°
2026-05-06 19:22 51.74064 12.48943 22588 ft 376 kts 37°
2026-05-06 19:22 51.76178 12.51531 22029 ft 377 kts 37°
2026-05-06 19:22 51.78240 12.54058 21505 ft 377 kts 37°
2026-05-06 19:22 51.80327 12.56617 20993 ft 377 kts 37°
2026-05-06 19:23 51.82416 12.59181 20477 ft 377 kts 37°
2026-05-06 19:23 51.84504 12.61751 19975 ft 377 kts 37°
2026-05-06 19:23 51.86591 12.64323 19482 ft 377 kts 37°
2026-05-06 19:23 51.88676 12.66897 18998 ft 377 kts 37°
2026-05-06 19:24 51.90757 12.69470 18514 ft 377 kts 36°
2026-05-06 19:24 51.92838 12.72043 18035 ft 376 kts 36°
2026-05-06 19:24 51.94921 12.74621 17492 ft 376 kts 36°
2026-05-06 19:24 51.96996 12.77196 16963 ft 376 kts 36°
2026-05-06 19:25 51.99069 12.79768 16444 ft 375 kts 36°
2026-05-06 19:25 52.01141 12.82341 15925 ft 375 kts 37°
2026-05-06 19:25 52.03207 12.84913 15417 ft 374 kts 37°
2026-05-06 19:25 52.05272 12.87488 14918 ft 373 kts 37°
2026-05-06 19:26 52.07330 12.90052 14449 ft 372 kts 37°
2026-05-06 19:26 52.09378 12.92608 13950 ft 371 kts 37°
2026-05-06 19:26 52.11540 12.94875 13451 ft 369 kts 22°
2026-05-06 19:26 52.14001 12.95842 12919 ft 363 kts
2026-05-06 19:27 52.16482 12.95428 12398 ft 357 kts 346°
2026-05-06 19:27 52.18901 12.94597 11799 ft 351 kts 345°
2026-05-06 19:27 52.21244 12.93763 11197 ft 338 kts 345°
2026-05-06 19:27 52.23506 12.92955 10599 ft 328 kts 345°
2026-05-06 19:28 52.25653 12.91969 10043 ft 315 kts 336°
2026-05-06 19:28 52.27631 12.90703 9851 ft 294 kts 335°
2026-05-06 19:28 52.29447 12.89516 9818 ft 269 kts 335°
2026-05-06 19:28 52.31143 12.88419 9828 ft 259 kts 335°
2026-05-06 19:29 52.32806 12.87359 9530 ft 254 kts 335°
2026-05-06 19:29 52.34443 12.86317 8972 ft 251 kts 335°
2026-05-06 19:29 52.36063 12.85278 8424 ft 249 kts 335°
2026-05-06 19:29 52.37666 12.84241 7879 ft 246 kts 335°
2026-05-06 19:30 52.39252 12.83207 7345 ft 244 kts 335°
2026-05-06 19:30 52.40817 12.82179 6904 ft 239 kts 335°
2026-05-06 19:30 52.42369 12.81153 6828 ft 241 kts 335°
2026-05-06 19:30 52.43961 12.80256 6829 ft 245 kts 351°
2026-05-06 19:31 52.45659 12.80565 6835 ft 251 kts 21°
2026-05-06 19:31 52.47051 12.82259 6841 ft 253 kts 53°
2026-05-06 19:31 52.47545 12.87709 6838 ft 251 kts 115°
2026-05-06 19:32 52.46549 12.89997 6773 ft 246 kts 142°
2026-05-06 19:32 52.45130 12.91488 6406 ft 243 kts 153°
2026-05-06 19:32 52.43727 12.93035 6024 ft 244 kts 145°
2026-05-06 19:32 52.42379 12.94715 5668 ft 242 kts 145°
2026-05-06 19:33 52.41053 12.96410 5312 ft 241 kts 143°
2026-05-06 19:33 52.39741 12.98093 5048 ft 237 kts 143°
2026-05-06 19:33 52.38439 12.99759 4998 ft 238 kts 143°
2026-05-06 19:33 52.37124 13.01436 4998 ft 242 kts 144°
2026-05-06 19:34 52.35793 13.03128 4999 ft 243 kts 144°
2026-05-06 19:34 52.34455 13.04826 5001 ft 243 kts 144°
2026-05-06 19:34 52.33124 13.06509 4777 ft 240 kts 143°
2026-05-06 19:34 52.31824 13.08153 4526 ft 234 kts 144°
2026-05-06 19:35 52.30541 13.09772 4228 ft 231 kts 143°
2026-05-06 19:35 52.29282 13.11371 3928 ft 228 kts 139°
2026-05-06 19:35 52.28281 13.13328 3652 ft 224 kts 118°
2026-05-06 19:35 52.27760 13.15681 3379 ft 219 kts 98°
2026-05-06 19:36 52.27756 13.18131 3107 ft 214 kts 79°
2026-05-06 19:36 52.28206 13.20412 3021 ft 212 kts 68°
2026-05-06 19:36 52.28748 13.22652 3023 ft 213 kts 68°
2026-05-06 19:36 52.29274 13.24834 2979 ft 201 kts 69°
2026-05-06 19:37 52.29777 13.26925 2779 ft 196 kts 69°
2026-05-06 19:37 52.30268 13.28970 2565 ft 188 kts 68°
2026-05-06 19:37 52.30727 13.30881 2300 ft 174 kts 69°
2026-05-06 19:37 52.31011 13.32069 2144 ft 165 kts 68°
2026-05-06 19:38 52.31541 13.34281 1872 ft 144 kts 68°
2026-05-06 19:38 52.31896 13.35763 1679 ft 137 kts 68°
2026-05-06 19:38 52.32238 13.37191 1486 ft 133 kts 68°
2026-05-06 19:38 52.32573 13.38590 1309 ft 132 kts 68°
2026-05-06 19:39 52.32905 13.39989 1116 ft 132 kts 68°
2026-05-06 19:39 52.33234 13.41397 927 ft 133 kts 68°
2026-05-06 19:39 52.33570 13.42795 762 ft 132 kts 67°
2026-05-06 19:39 52.33911 13.44181 588 ft 132 kts 66°
2026-05-06 19:40 52.34243 13.45579 383 ft 130 kts 68°
2026-05-06 19:40 52.34569 13.46954 189 ft 131 kts 69°
2026-05-06 19:40 52.34872 13.48231 154 ft 101 kts 69°
2026-05-06 19:40 52.35064 13.49029 154 ft 51 kts 66°
2026-05-06 19:41 52.35229 13.49357 154 ft 30 kts 39°
2026-05-06 19:41 52.35343 13.49512 154 ft 11 kts 38°
2026-05-06 19:41 52.35369 13.49545 154 ft 0 kts 38°
2026-05-06 19:43 52.35375 13.49553 154 ft 6 kts 38°
2026-05-06 19:43 52.35443 13.49655 154 ft 18 kts 55°
2026-05-06 19:44 52.35492 13.49848 154 ft 19 kts 69°
2026-05-06 19:44 52.35543 13.50059 154 ft 21 kts 68°
2026-05-06 19:44 52.35596 13.50284 154 ft 22 kts 69°
2026-05-06 19:44 52.35651 13.50518 154 ft 23 kts 68°
2026-05-06 19:45 52.35706 13.50750 154 ft 17 kts 69°
2026-05-06 19:45 52.35769 13.50825 154 ft 11 kts 353°
2026-05-06 19:45 52.35842 13.50781 154 ft 11 kts 339°
2026-05-06 19:45 52.35911 13.50800 154 ft 11 kts 53°
2026-05-06 19:46 52.35939 13.50915 154 ft 11 kts 69°
2026-05-06 19:46 52.35968 13.51045 155 ft 13 kts 68°
2026-05-06 19:46 52.36006 13.51198 155 ft 16 kts 69°
2026-05-06 19:46 52.36049 13.51381 155 ft 18 kts 68°
2026-05-06 19:47 52.36095 13.51565 155 ft 11 kts 57°
2026-05-06 19:47 52.36154 13.51562 155 ft 6 kts 339°
2026-05-06 19:47 52.36178 13.51548 155 ft 2 kts 339°
2026-05-06 19:47 52.36180 13.51546 155 ft 0 kts 339°